Tracking 20719 objects as of 26-May-2020
HD Live streaming from Space Station
objects crossing your sky now

FLOCK 2K 14

Track FLOCK 2K 14 now!
10-day predictions
FLOCK 2K 14 is classified as:


NORAD ID: 42892
Int'l Code: 2017-042BV
Perigee: 436.4 km
Apogee: 452.5 km
Inclination: 96.9 °
Period: 93.3 minutes
Semi major axis: 6815 km
RCS: Unknown
Launch date: July 14, 2017
Source: United States (US)
Launch site: TYURATAM MISSILE AND SPACE COMPLEX (TTMTR)
aabbcc
Your satellite tracking list
Your tracking list is empty




NASA's NSSDC Master Catalog

Two Line Element Set (TLE):
1 42892U 17042BV  20146.76531344 +.00004980 +00000-0 +11459-3 0  9999
2 42892 096.8947 016.5581 0011804 047.5802 312.6443 15.42992368160667
Source of the keplerian elements: AFSPC